TimeEDT,TemperatureF,Dew PointF,Humidity,Sea Level PressureIn,VisibilityMPH,Wind Direction,Wind SpeedMPH,Gust SpeedMPH,PrecipitationIn,Events,Conditions,WindDirDegrees,DateUTC
1:54 AM,68.0,60.1,76,29.91,10.0,South,3.5,-,N/A,,Mostly Cloudy,180,2013-08-13 05:54:00
2:54 AM,68.0,61.0,78,29.91,10.0,SSW,3.5,-,N/A,,Overcast,210,2013-08-13 06:54:00
3:54 AM,68.0,61.0,78,29.89,10.0,Calm,Calm,-,N/A,,Overcast,0,2013-08-13 07:54:00
4:54 AM,68.0,61.0,78,29.88,10.0,Calm,Calm,-,N/A,,Mostly Cloudy,0,2013-08-13 08:54:00
5:54 AM,66.9,60.1,79,29.87,10.0,Calm,Calm,-,N/A,,Clear,0,2013-08-13 09:54:00
6:54 AM,68.0,60.1,76,29.88,10.0,Calm,Calm,-,N/A,,Clear,0,2013-08-13 10:54:00
7:54 AM,70.0,60.1,71,29.86,10.0,Calm,Calm,-,N/A,,Mostly Cloudy,0,2013-08-13 11:54:00
8:54 AM,71.1,62.1,73,29.85,10.0,Calm,Calm,-,N/A,,Clear,0,2013-08-13 12:54:00
9:54 AM,72.0,63.0,73,29.85,10.0,SW,4.6,-,N/A,,Mostly Cloudy,230,2013-08-13 13:54:00
10:54 AM,71.1,64.0,78,29.86,9.0,SSW,3.5,-,0.00,Rain,Light Rain,200,2013-08-13 14:54:00
11:54 AM,72.0,64.0,76,29.86,10.0,Calm,Calm,-,0.01,,Overcast,0,2013-08-13 15:54:00
12:54 PM,72.0,64.0,76,29.83,10.0,South,3.5,-,0.00,Rain,Light Rain,180,2013-08-13 16:54:00
1:54 PM,73.0,64.9,76,29.81,10.0,ESE,4.6,-,0.00,,Overcast,120,2013-08-13 17:54:00
2:54 PM,73.0,66.0,79,29.78,10.0,SSE,5.8,-,0.00,,Mostly Cloudy,150,2013-08-13 18:54:00
3:54 PM,75.0,62.1,64,29.77,10.0,SSW,4.6,-,N/A,,Partly Cloudy,210,2013-08-13 19:54:00
4:54 PM,75.0,61.0,62,29.75,10.0,SW,5.8,-,N/A,,Mostly Cloudy,230,2013-08-13 20:54:00
5:54 PM,75.0,61.0,62,29.73,10.0,Variable,3.5,-,N/A,,Mostly Cloudy,0,2013-08-13 21:54:00
6:54 PM,73.9,61.0,64,29.72,10.0,ESE,3.5,-,N/A,,Mostly Cloudy,120,2013-08-13 22:54:00
7:54 PM,71.1,61.0,70,29.72,10.0,SE,3.5,-,N/A,,Clear,130,2013-08-13 23:54:00
8:54 PM,69.1,63.0,81,29.73,10.0,ESE,3.5,-,N/A,,Clear,120,2013-08-14 00:54:00
9:54 PM,66.9,63.0,87,29.74,9.0,SSE,3.5,-,N/A,,Clear,150,2013-08-14 01:54:00
10:54 PM,66.0,62.1,87,29.73,9.0,Calm,Calm,-,N/A,,Partly Cloudy,0,2013-08-14 02:54:00
11:54 PM,66.0,62.1,87,29.70,8.0,Calm,Calm,-,N/A,,Clear,0,2013-08-14 03:54:00